Location: Prostejov
(49.4670°N, 17.1170°E)
Time: 10:06:21
(UTC+02:00)

ISS - Pass Details

Date: 27 May 2021
Orbit: 417 x 422 km, 51.6° (Epoch: 13 June)

Event Time Altitude Azimuth Distance (km) Brightness Sun altitude
Rises 22:14:38 0° 289° (WNW) 2,367 1.1 -11.3°
Reaches altitude 10° 22:16:46 10° 284° (WNW) 1,502 -0.2 -11.5°
Maximum altitude 22:20:03 52° 208° (SSW) 531 -3.5 -11.8°
Enters shadow 22:22:05 21° 138° (SE) 1,017 -2.4 -12.0°
